Barrow, AK

12:05 PM AKDT on March 30, 2017 (GMT -0800)
Wiley Post-Will Rogers Memorial

Weather History for PABR - June, 2014

Change the Weather History Date:

Sunday, June 8, 2014

  Actual Average Record
Temperature  
Mean Temperature 32 °F 33 °F  
Max Temperature 34 °F 37 °F 54 °F (2002)
Min Temperature 30 °F 29 °F 14 °F (1933)
Degree Days  
Heating Degree Days 33 32  
Month to date heating degree days 271 268  
Since 1 June heating degree days 271 268  
Since 1 July heating degree days 17119 18775  
Cooling Degree Days 0    
Month to date cooling degree days 0  
Year to date cooling degree days 0  
Since 1 June cooling degree days 0  
Moisture  
Dew Point 30 °F    
Average Humidity 0    
Maximum Humidity 0    
Minimum Humidity 0    
Precipitation  
Precipitation T in 0.01 in 0.17 in (1989)
Month to date precipitation 0.21 0.06  
Year to date precipitation 1.83 0.76  
Snow  
Snow 0.00 in 0.00 in 0.10 in (2016)
Month to date snowfall 0.4 0.3  
Since 1 June snowfall 0.4 0.3  
Since 1 July snowfall 53.7 37.3  
Snow Depth T in    
Sea Level Pressure  
Sea Level Pressure 29.95 in    
Wind  
Wind Speed 12 mph (ENE)    
Max Wind Speed 18 mph    
Max Gust Speed 22 mph    
Visibility 4 miles    
Events Fog , Rain    
T = Trace of Precipitation, MM = Missing Value Source: NWS Daily Summary

Daily Weather History Graph

Daily Weather History Graph

Search for Another Location

Airport or City:

Trip Planner

Search our weather history database for the weather conditions in past years. The results will help you decide how hot, cold, wet, or windy it might be!

Date:

Astronomy

Dec. 31, 1969 Rise Set
Actual Time Sun does not rise Sun does not rise
Civil Twilight Sun does not rise Sun does not rise
Nautical Twilight Sun does not rise Sun does not rise
Astronomical Twilight Sun does not rise Sun does not rise
Moon 7:02 PM AKDT (6/8) 2:47 AM AKDT (6/8)
Length of Visible Light 24h 00m
Length of Day
24h 00m
Waxing Gibbous, 78% of the Moon is Illuminated
Jun 8
Waxing Gibbous
Jun 12
Full
Jun 19
Last Quarter
Jun 27
New
Jul 5
First Quarter

Hourly Weather History & Observations

Time (AKDT) Temp. Windchill Dew Point Humidity Pressure Visibility Wind Dir Wind Speed Gust Speed Precip Events Conditions
12:12 AM 30.0 °F 21.7 °F 28.0 °F 92% 29.97 in 4.0 mi ENE 9.2 mph - 0.00 in   Overcast
12:53 AM 30.0 °F 20.5 °F 28.0 °F 92% 29.97 in 9.0 mi ENE 11.5 mph - 0.00 in   Overcast
1:17 AM 30.9 °F 21.7 °F 28.0 °F 89% 29.97 in 10.0 mi ENE 11.5 mph - N/A   Overcast
1:53 AM 30.9 °F 21.7 °F 28.0 °F 89% 29.97 in 10.0 mi NE 11.5 mph - N/A   Overcast
2:17 AM 30.0 °F 21.1 °F 28.0 °F 92% 29.97 in 10.0 mi ENE 10.4 mph - N/A   Overcast
2:35 AM 30.0 °F 21.1 °F 28.9 °F 96% 29.96 in 1.8 mi NE 10.4 mph - N/A   Overcast
2:44 AM 30.0 °F 21.1 °F 28.9 °F 96% 29.97 in 0.5 mi ENE 10.4 mph - N/A Fog Light Freezing Fog
2:53 AM 30.0 °F 21.1 °F 28.9 °F 96% 29.97 in 0.5 mi ENE 10.4 mph - N/A Fog Light Freezing Fog
3:17 AM 30.9 °F 22.8 °F 30.0 °F 96% 29.97 in 0.8 mi NE 9.2 mph - N/A   Overcast
3:25 AM 30.9 °F 22.2 °F 28.9 °F 92% 29.96 in 0.5 mi NE 10.4 mph - N/A Fog Light Freezing Fog
3:53 AM 30.9 °F 22.8 °F 30.0 °F 96% 29.97 in 0.5 mi ENE 9.2 mph - N/A Fog Light Freezing Fog
3:58 AM 30.9 °F 22.8 °F 30.0 °F 96% 29.97 in 0.8 mi ENE 9.2 mph - 0.00 in Rain Light Freezing Rain
4:11 AM 30.9 °F 22.8 °F 30.0 °F 96% 29.96 in 0.8 mi ENE 9.2 mph - 0.00 in Rain Light Freezing Rain
4:22 AM 30.9 °F 22.8 °F 30.0 °F 96% 29.96 in 0.5 mi ENE 9.2 mph - 0.00 in Fog Light Freezing Fog
4:47 AM 30.2 °F 21.3 °F 30.2 °F 100% 29.95 in 1.0 mi NE 10.4 mph - 0.00 in   Mist
4:53 AM 30.9 °F 22.2 °F 30.0 °F 96% 29.96 in 1.5 mi NE 10.4 mph - 0.00 in   Overcast
5:03 AM 30.9 °F 22.2 °F 30.0 °F 96% 29.96 in 0.5 mi NE 10.4 mph - N/A Fog Light Freezing Fog
5:23 AM 30.9 °F 22.2 °F 30.0 °F 96% 29.96 in 1.0 mi NE 10.4 mph - N/A   Overcast
5:53 AM 30.9 °F 21.7 °F 30.0 °F 96% 29.96 in 2.0 mi ENE 11.5 mph - N/A   Overcast
6:03 AM 30.9 °F 22.2 °F 30.0 °F 96% 29.96 in 3.0 mi ENE 10.4 mph - N/A   Overcast
6:53 AM 32.0 °F 23.6 °F 30.0 °F 92% 29.96 in 10.0 mi NE 10.4 mph - N/A   Overcast
7:53 AM 32.0 °F 23.6 °F 30.0 °F 92% 29.96 in 10.0 mi ENE 10.4 mph - N/A   Overcast
8:53 AM 32.0 °F 23.6 °F 30.0 °F 92% 29.96 in 10.0 mi ENE 10.4 mph - N/A   Overcast
9:29 AM 33.1 °F 24.9 °F 30.0 °F 89% 29.95 in 10.0 mi NE 10.4 mph - N/A   Overcast
9:53 AM 33.1 °F 24.4 °F 30.0 °F 89% 29.95 in 10.0 mi ENE 11.5 mph - N/A   Overcast
10:53 AM 33.1 °F 23.9 °F 30.9 °F 92% 29.96 in 9.0 mi ENE 12.7 mph - N/A   Overcast
11:53 AM 33.8 °F 24.3 °F 30.2 °F 87% 29.96 in 8.0 mi NE 13.8 mph - N/A   Overcast
12:53 PM 34.0 °F 24.6 °F 30.9 °F 89% 29.96 in 10.0 mi NE 13.8 mph - N/A   Overcast
1:53 PM 33.1 °F 23.9 °F 30.9 °F 92% 29.96 in 10.0 mi ENE 12.7 mph - N/A   Overcast
2:53 PM 34.0 °F 23.8 °F 30.9 °F 89% 29.95 in 10.0 mi ENE 16.1 mph - N/A   Overcast
3:53 PM 33.1 °F 22.2 °F 30.9 °F 92% 29.95 in 10.0 mi ENE 17.3 mph - N/A   Overcast
4:53 PM 33.1 °F 23.0 °F 30.9 °F 92% 29.95 in 7.0 mi ENE 15.0 mph - N/A   Overcast
5:53 PM 33.1 °F 23.9 °F 30.9 °F 92% 29.95 in 10.0 mi East 12.7 mph - N/A   Overcast
6:53 PM 33.1 °F 23.9 °F 30.9 °F 92% 29.95 in 3.0 mi ENE 12.7 mph - 0.00 in   Light Drizzle
7:20 PM 33.1 °F 23.9 °F 30.9 °F 92% 29.94 in 1.0 mi NE 12.7 mph - 0.00 in   Overcast
7:37 PM 33.1 °F 23.4 °F 30.9 °F 92% 29.94 in 0.8 mi NE 13.8 mph - 0.00 in   Overcast
7:53 PM 32.0 °F 22.5 °F 30.0 °F 92% 29.94 in 1.0 mi NE 12.7 mph - 0.00 in   Overcast
8:25 PM 32.0 °F 22.1 °F 30.0 °F 92% 29.94 in 2.0 mi NE 13.8 mph - N/A   Overcast
8:53 PM 30.9 °F 20.2 °F 28.9 °F 92% 29.95 in 1.5 mi ENE 15.0 mph - N/A   Overcast
9:53 PM 32.0 °F 22.5 °F 30.0 °F 92% 29.95 in 3.0 mi ENE 12.7 mph - N/A   Overcast
10:22 PM 30.9 °F 20.2 °F 30.0 °F 96% 29.94 in 1.8 mi ENE 15.0 mph - 0.00 in   Light Freezing Drizzle
10:31 PM 30.9 °F 20.2 °F 30.0 °F 96% 29.94 in 0.8 mi ENE 15.0 mph - 0.00 in   Light Freezing Drizzle
10:36 PM 30.9 °F 19.8 °F 30.0 °F 96% 29.94 in 2.0 mi ENE 16.1 mph - 0.00 in   Light Freezing Drizzle
10:42 PM 32.0 °F 21.6 °F 30.0 °F 92% 29.94 in 0.8 mi NE 15.0 mph - 0.00 in   Light Freezing Drizzle
10:47 PM 30.2 °F 19.8 °F 30.2 °F 100% 29.94 in 1.0 mi ENE 13.8 mph - 0.00 in   Light Freezing Rain
10:53 PM 30.9 °F 20.2 °F 30.0 °F 96% 29.95 in 1.8 mi ENE 15.0 mph - 0.00 in   Light Freezing Rain
10:59 PM 30.9 °F 20.2 °F 30.0 °F 96% 29.94 in 3.0 mi ENE 15.0 mph - 0.00 in   Light Freezing Rain
11:10 PM 30.9 °F 20.7 °F 30.0 °F 96% 29.94 in 2.0 mi ENE 13.8 mph - 0.00 in   Light Freezing Rain
11:18 PM 30.9 °F 19.8 °F 30.0 °F 96% 29.94 in 1.2 mi ENE 16.1 mph - 0.00 in   Light Freezing Rain
11:24 PM 30.9 °F 19.4 °F 28.9 °F 92% 29.95 in 4.0 mi East 17.3 mph - 0.00 in   Light Freezing Rain
11:53 PM 30.9 °F 19.8 °F 28.9 °F 92% 29.95 in 8.0 mi ENE 16.1 mph - 0.00 in   Overcast